[[{"header":{"parameterUnit":"m.s-1","parameterCategory":2,"la1":30.2992,"la2":30.254,"lo1":-89.0895,"lo2":-89.0443,"dy":0.0025,"dx":0.0025,"nx":19,"ny":19,"refTime":"2026-04-05T09:00:00:Z","depth":"0","parameterNumber":2,"parameterNumberName":"U-component_of_CURRENTS"},"data":[0,0,0,0.2644,0.2645,0.2681,0.2681,0.2727,0.2728,0,0,0,0,0,0,0,0,0,0,0,0.2627,0.2627,0.2644,0.2645,0.2681,0.2681,0.2727,0.2728,0,0,0,0,0,0,0,0,0,0,0,0.2627,0.2627,0.2627,0.2645,0.2681,0.2681,0.2727,0.2698,0,0,0,0,0,0,0,0,0,0,0.2662,0.2647,0.2627,0.2628,0.2645,0.2681,0.2681,0.2696,0.27,0.2713,0,0.2722,0,0.2732,0.2731,0.2732,0,0,0,0.2637,0.2644,0.2659,0.2628,0.2646,0.2681,0.2663,0.2698,0.2702,0.2717,0.2723,0.2725,0.2733,0.2732,0.2732,0.2807,0.2807,0,0,0.2635,0.2629,0.2656,0.2661,0.2661,0.2662,0.2664,0.27,0.2704,0.2723,0.2726,0.2734,0.2732,0.2732,0.2806,0.2807,0,0,0,0.2635,0.2627,0.264,0.2659,0.2669,0.2663,0.2665,0.2702,0.2708,0.2726,0.2734,0.2732,0.2733,0.2806,0.2806,0.2858,0,0,0,0.2633,0.2628,0.264,0.2635,0.2669,0.2686,0.2666,0.2705,0.271,0.2734,0.2732,0.2734,0.2805,0.2806,0.2856,0.2864,0,0,0,0.2624,0.2627,0.2633,0.2635,0.2655,0.2686,0.2693,0.2706,0.2715,0.2732,0.2734,0.2805,0.2806,0.2854,0.2861,0.2938,0,0,0,0.2612,0.262,0.2633,0.2652,0.2655,0.2696,0.2693,0.2715,0.273,0.2733,0.2805,0.2806,0.2853,0.2859,0.2935,0.2915,0.2927,0,0,0.2614,0.262,0.2634,0.2646,0.2678,0.269,0.2739,0.275,0.275,0.2791,0.2793,0.2856,0.2861,0.2938,0.2969,0.2979,0,0,0,0.2629,0.2632,0.2645,0.2671,0.2706,0.275,0.2767,0.2788,0.2827,0.2766,0.2861,0.2862,0.2909,0.2891,0.2899,0.2862,0.2811,0.2811,0.2811,0.2599,0.263,0.2646,0.2688,0.2727,0.2792,0.2833,0.2867,0.2862,0.289,0.2908,0.3003,0.2984,0.299,0.2952,0.292,0.292,0.2921,0.2921,0.2589,0.2591,0.2644,0.2666,0.2736,0.2788,0.2895,0.292,0.3006,0.2967,0.3012,0.295,0.3002,0.2958,0.2924,0.2923,0.2923,0.2923,0.2922,0.2551,0.2553,0.2576,0.263,0.2702,0.2794,0.2894,0.2988,0.3038,0.3087,0.3093,0.3092,0.3051,0.3126,0.3127,0.3127,0.3127,0.3128,0.3128,0.2494,0.2518,0.2526,0.26,0.2634,0.2745,0.2916,0.2989,0.3108,0.3143,0.3143,0.3075,0.3066,0.3057,0.3134,0.3133,0.3132,0.3131,0.3131,0.2431,0.2449,0.2465,0.2489,0.2581,0.2636,0.2828,0.2995,0.3118,0.3167,0.3165,0.3186,0.3173,0.3165,0.3157,0.3256,0.3256,0.3256,0.3256,0.2375,0.2392,0.2384,0.2404,0.2463,0.2575,0.2631,0.2815,0.3045,0.3125,0.3197,0.3129,0.3126,0.3105,0.3099,0.3088,0.3167,0.3167,0.3167,0.2327,0.2343,0.2305,0.2332,0.2383,0.2453,0.2466,0.2591,0.2944,0.316,0.3156,0.3159,0.3054,0.3051,0.3009,0.3003,0.2981,0,0]},{"header":{"parameterUnit":"m.s-1","parameterCategory":2,"la1":30.2992,"la2":30.254,"lo1":-89.0895,"lo2":-89.0443,"dy":0.0025,"dx":0.0025,"nx":19,"ny":19,"refTime":"2026-04-05T09:00:00:Z","depth":"0","parameterNumber":3,"parameterNumberName":"V-component_of_CURRENTS"},"data":[0,0,0,0.0097,0.0097,0.0067,0.0067,0.0014,0.0013,0,0,0,0,0,0,0,0,0,0,0,0.0106,0.0106,0.0097,0.0097,0.0067,0.0067,0.0014,0.0013,0,0,0,0,0,0,0,0,0,0,0,0.0106,0.0106,0.0106,0.0097,0.0067,0.0067,0.0014,0.0038,0,0,0,0,0,0,0,0,0,0,0.0067,0.0081,0.0106,0.0106,0.0097,0.0067,0.0067,0.0039,0.0036,0.0025,0,0.0026,0,0.0022,0.001,0.001,0,0,0,0.0088,0.0083,0.0078,0.0106,0.0096,0.0068,0.0078,0.0037,0.0034,0.0021,0.0025,0.0023,0.0021,0.001,0.0009,0.0013,0.0013,0,0,0.0089,0.0096,0.008,0.0076,0.0096,0.0079,0.0077,0.0036,0.0034,0.0025,0.0022,0.0021,0.0009,0.0009,0.0013,0.0013,0,0,0,0.01,0.0097,0.0093,0.0078,0.0076,0.0078,0.0076,0.0035,0.0035,0.0022,0.002,0.0009,0.0009,0.0012,0.0013,0.0108,0,0,0,0.0101,0.0104,0.0094,0.0096,0.0077,0.0058,0.0077,0.0037,0.0033,0.002,0.0009,0.0008,0.0012,0.0012,0.0105,0.0161,0,0,0,0.0106,0.0105,0.0104,0.0097,0.0089,0.0058,0.0055,0.0036,0.0032,0.001,0.0008,0.0011,0.0012,0.0102,0.0155,0.0201,0,0,0,0.011,0.0135,0.0104,0.0134,0.0089,0.0112,0.0055,0.0054,0.0041,0.0009,0.0012,0.0013,0.0101,0.0151,0.0197,0.0282,0.0307,0,0,0.015,0.014,0.016,0.0133,0.0168,0.0114,0.0151,0.01,0.005,0.0021,0.0021,0.0106,0.0154,0.02,0.0335,0.0359,0,0,0,0.0179,0.0197,0.0201,0.0212,0.0206,0.0219,0.0168,0.014,0.011,0.0047,0.0098,0.0125,0.0151,0.0194,0.0212,0.0108,0.0017,0.0017,0.0017,0.0236,0.0242,0.0287,0.0299,0.0309,0.0285,0.0285,0.0239,0.0174,0.0172,0.0197,0.029,0.0337,0.0352,0.0243,0.0181,0.0181,0.0182,0.0182,0.0323,0.0363,0.0366,0.0411,0.041,0.0436,0.0407,0.0363,0.0346,0.0275,0.0294,0.0285,0.0378,0.0254,0.0188,0.0187,0.0186,0.0186,0.0185,0.0373,0.04,0.042,0.0495,0.0548,0.0546,0.0613,0.0547,0.0453,0.0468,0.0488,0.0487,0.0383,0.047,0.047,0.0471,0.0471,0.0471,0.0472,0.0422,0.0451,0.0522,0.0594,0.0658,0.0737,0.0736,0.0736,0.0687,0.0611,0.061,0.0411,0.0378,0.0372,0.0479,0.0478,0.0477,0.0476,0.0475,0.0507,0.0513,0.0635,0.0703,0.086,0.1008,0.0986,0.1004,0.0946,0.0945,0.0641,0.0676,0.0653,0.0638,0.0638,0.0807,0.0807,0.0807,0.0807,0.0561,0.0573,0.0742,0.0876,0.1033,0.1136,0.1304,0.1281,0.1022,0.0861,0.0716,0.0651,0.0642,0.0612,0.0597,0.0593,0.0747,0.0746,0.0746,0.063,0.0676,0.0805,0.0929,0.1113,0.1286,0.1476,0.1521,0.1084,0.0726,0.0555,0.0557,0.0437,0.0431,0.0359,0.0347,0.0329,0,0]}],[{"header":{"parameterUnit":"m.s-1","parameterCategory":2,"la1":30.2992,"la2":30.254,"lo1":-89.0895,"lo2":-89.0443,"dy":0.0025,"dx":0.0025,"nx":19,"ny":19,"refTime":"2026-04-05T09:00:00:Z","depth":"2","parameterNumber":2,"parameterNumberName":"U-component_of_CURRENTS"},"data":[0,0,0,0.2537,0.2538,0.2586,0.2586,0.2637,0.2637,0,0,0,0,0,0,0,0,0,0,0,0.2517,0.2517,0.2536,0.2538,0.2586,0.2586,0.2637,0.2637,0,0,0,0,0,0,0,0,0,0,0,0.2517,0.2517,0.2518,0.2538,0.2586,0.2586,0.2636,0.2601,0,0,0,0,0,0,0,0,0,0,0.2555,0.254,0.2517,0.2518,0.2539,0.2586,0.2586,0.2599,0.2603,0.2614,0,0.2627,0,0.2638,0.2641,0.2641,0,0,0,0.253,0.2537,0.2553,0.2518,0.2539,0.2586,0.2562,0.2602,0.2606,0.2619,0.2628,0.263,0.2639,0.2641,0.2642,0.2717,0.2718,0,0,0.2528,0.2521,0.255,0.2556,0.2559,0.2561,0.2564,0.2604,0.2609,0.2628,0.2631,0.264,0.2642,0.2642,0.2717,0.2717,0,0,0,0.2525,0.2519,0.2535,0.2554,0.2567,0.2562,0.2566,0.2607,0.2614,0.2632,0.2641,0.2642,0.2643,0.2716,0.2717,0.2769,0,0,0,0.2523,0.2519,0.2534,0.253,0.2566,0.2589,0.2568,0.2611,0.2616,0.264,0.2642,0.2643,0.2716,0.2717,0.2767,0.2775,0,0,0,0.2513,0.2517,0.2526,0.2529,0.2554,0.2589,0.2597,0.2612,0.2622,0.2641,0.2643,0.2716,0.2717,0.2765,0.2772,0.2846,0,0,0,0.25,0.2512,0.2526,0.2548,0.2554,0.2597,0.2597,0.2624,0.2641,0.2642,0.2716,0.2717,0.2764,0.277,0.2843,0.2802,0.2812,0,0,0.2505,0.2512,0.2527,0.2541,0.2575,0.259,0.2641,0.2658,0.266,0.27,0.2701,0.2768,0.2771,0.2845,0.2857,0.2865,0,0,0,0.2522,0.2527,0.2541,0.2569,0.2605,0.265,0.2672,0.2695,0.2737,0.2677,0.2772,0.2773,0.2818,0.2787,0.2794,0.2721,0.2721,0.2721,0.2721,0.2497,0.2527,0.2546,0.2587,0.2627,0.2694,0.2736,0.2773,0.277,0.2801,0.282,0.2913,0.288,0.2885,0.2832,0.2832,0.2832,0.2832,0.2833,0.2491,0.2495,0.2546,0.2571,0.264,0.2694,0.2799,0.2826,0.2912,0.2877,0.292,0.2848,0.2895,0.2837,0.2836,0.2835,0.2835,0.2835,0.2834,0.2456,0.246,0.2485,0.254,0.2614,0.2705,0.2803,0.2895,0.2946,0.2994,0.2986,0.2984,0.2952,0.3034,0.3034,0.3034,0.3035,0.3035,0.3035,0.2403,0.2428,0.244,0.2516,0.2552,0.2661,0.2828,0.2896,0.3004,0.3033,0.3033,0.2981,0.2974,0.2964,0.3041,0.304,0.3039,0.3039,0.3038,0.2345,0.2364,0.2384,0.2411,0.2503,0.2548,0.2738,0.2886,0.3003,0.304,0.3068,0.3066,0.3049,0.3042,0.3033,0.3124,0.3124,0.3124,0.3124,0.2294,0.2311,0.2309,0.2331,0.2387,0.2485,0.2505,0.2612,0.2817,0.2874,0.2884,0.28,0.2803,0.2767,0.2766,0.2749,0.2766,0.2765,0.2764,0.2251,0.2266,0.2233,0.2262,0.231,0.2358,0.231,0.2242,0.2427,0.2741,0.2731,0.3117,0.3019,0.3015,0.2976,0.2968,0.2948,0,0]},{"header":{"parameterUnit":"m.s-1","parameterCategory":2,"la1":30.2992,"la2":30.254,"lo1":-89.0895,"lo2":-89.0443,"dy":0.0025,"dx":0.0025,"nx":19,"ny":19,"refTime":"2026-04-05T09:00:00:Z","depth":"2","parameterNumber":3,"parameterNumberName":"V-component_of_CURRENTS"},"data":[0,0,0,0.0216,0.0216,0.0182,0.0182,0.0133,0.0133,0,0,0,0,0,0,0,0,0,0,0,0.0227,0.0226,0.0216,0.0216,0.0182,0.0182,0.0134,0.0133,0,0,0,0,0,0,0,0,0,0,0,0.0227,0.0226,0.0226,0.0216,0.0182,0.0182,0.0134,0.0158,0,0,0,0,0,0,0,0,0,0,0.0191,0.0203,0.0226,0.0226,0.0215,0.0182,0.0182,0.016,0.0157,0.0149,0,0.0149,0,0.0144,0.013,0.013,0,0,0,0.0208,0.0205,0.0199,0.0226,0.0215,0.0183,0.0195,0.0158,0.0155,0.0146,0.0148,0.0146,0.0143,0.013,0.013,0.0138,0.0138,0,0,0.0209,0.0216,0.0201,0.0197,0.0212,0.0196,0.0194,0.0156,0.0154,0.0148,0.0145,0.0142,0.013,0.013,0.0138,0.0138,0,0,0,0.022,0.0217,0.0212,0.0199,0.0196,0.0195,0.0193,0.0155,0.0154,0.0144,0.0141,0.013,0.0129,0.0137,0.0138,0.0227,0,0,0,0.0221,0.0224,0.0213,0.0215,0.0197,0.0176,0.0193,0.0157,0.0152,0.0142,0.013,0.0129,0.0137,0.0138,0.0223,0.0276,0,0,0,0.0227,0.0224,0.0223,0.0216,0.0206,0.0176,0.0173,0.0155,0.0151,0.013,0.0129,0.0137,0.0137,0.022,0.027,0.0311,0,0,0,0.0231,0.0253,0.0223,0.025,0.0206,0.0227,0.0173,0.0171,0.016,0.013,0.0137,0.0138,0.022,0.0267,0.0308,0.0378,0.04,0,0,0.0268,0.0258,0.0277,0.025,0.0284,0.0231,0.0267,0.0218,0.017,0.0146,0.0146,0.0224,0.027,0.0311,0.0431,0.0451,0,0,0,0.0296,0.0312,0.0316,0.0326,0.032,0.0332,0.0283,0.0257,0.0228,0.0167,0.0218,0.0244,0.0267,0.0301,0.0318,0.0142,0.0142,0.0142,0.0142,0.0348,0.0354,0.0398,0.0409,0.042,0.0396,0.0396,0.0352,0.0291,0.0288,0.0311,0.0398,0.0436,0.0449,0.0297,0.0297,0.0297,0.0298,0.0298,0.0431,0.0468,0.0472,0.0516,0.0516,0.0542,0.0514,0.0471,0.0454,0.0386,0.0403,0.0387,0.0472,0.0305,0.0303,0.0302,0.0302,0.0301,0.0301,0.0477,0.0502,0.0521,0.0594,0.0646,0.0646,0.0708,0.0645,0.0553,0.0565,0.0575,0.0574,0.0458,0.0565,0.0565,0.0565,0.0566,0.0566,0.0566,0.0521,0.0549,0.0616,0.0687,0.0749,0.0825,0.0824,0.0821,0.0766,0.0689,0.0689,0.0488,0.0479,0.0473,0.0573,0.0572,0.0571,0.057,0.057,0.0599,0.0605,0.0722,0.0787,0.094,0.1077,0.1057,0.1062,0.1003,0.0994,0.0751,0.0745,0.0723,0.0709,0.0707,0.0862,0.0862,0.0862,0.0862,0.0648,0.066,0.0821,0.0951,0.1102,0.1196,0.133,0.1272,0.1104,0.097,0.0965,0.092,0.0906,0.089,0.0871,0.0871,0.1069,0.1069,0.1069,0.0711,0.0756,0.0878,0.1,0.1177,0.1333,0.1469,0.1396,0.113,0.1073,0.0962,0.0884,0.0801,0.0786,0.0741,0.072,0.0711,0,0]}],[{"header":{"parameterUnit":"m.s-1","parameterCategory":2,"la1":30.2992,"la2":30.254,"lo1":-89.0895,"lo2":-89.0443,"dy":0.0025,"dx":0.0025,"nx":19,"ny":19,"refTime":"2026-04-05T09:00:00:Z","depth":"4","parameterNumber":2,"parameterNumberName":"U-component_of_CURRENTS"},"data":[0,0,0,0.1782,0.1786,0.1951,0.1952,0.208,0.2081,0,0,0,0,0,0,0,0,0,0,0,0.1733,0.1734,0.1782,0.1786,0.1951,0.1952,0.208,0.2081,0,0,0,0,0,0,0,0,0,0,0,0.1732,0.1734,0.1736,0.1787,0.1951,0.1952,0.208,0.1975,0,0,0,0,0,0,0,0,0,0,0.1825,0.1796,0.1734,0.1736,0.1788,0.1951,0.1952,0.1971,0.1982,0.1982,0,0.2023,0,0.2051,0.2088,0.2088,0,0,0,0.1785,0.1788,0.1828,0.1736,0.1789,0.1951,0.1876,0.1978,0.199,0.1995,0.2025,0.203,0.2053,0.2088,0.2089,0.2203,0.2203,0,0,0.1776,0.1764,0.182,0.1836,0.1851,0.1871,0.1881,0.1986,0.2007,0.2025,0.2033,0.2055,0.2089,0.209,0.2202,0.2203,0,0,0,0.175,0.1757,0.1797,0.183,0.1865,0.1876,0.1888,0.2002,0.2015,0.2035,0.2057,0.209,0.2091,0.2202,0.2202,0.2257,0,0,0,0.1745,0.1742,0.1793,0.1787,0.1864,0.1948,0.1902,0.2008,0.2021,0.2056,0.209,0.2092,0.2201,0.2202,0.2255,0.2261,0,0,0,0.1722,0.174,0.1764,0.1786,0.1857,0.1947,0.1967,0.2012,0.2034,0.2088,0.2092,0.2201,0.2202,0.2252,0.2258,0.232,0,0,0,0.1695,0.173,0.1764,0.1816,0.1856,0.1944,0.1967,0.2045,0.2094,0.209,0.2201,0.2202,0.2252,0.2256,0.2318,0.2024,0,0,0,0.1712,0.1733,0.176,0.1793,0.1867,0.192,0.201,0.2087,0.2109,0.2159,0.2163,0.2256,0.2258,0.232,0.2094,0,0,0,0,0.1747,0.1768,0.1796,0.1857,0.1924,0.2007,0.2083,0.2123,0.221,0.2145,0.2264,0.2263,0.2301,0.2121,0.2208,0.2208,0.2208,0.2207,0.2207,0.173,0.1774,0.1822,0.1892,0.196,0.2076,0.2147,0.2217,0.2237,0.2288,0.2315,0.2405,0.2217,0.2331,0.2331,0.2332,0.2332,0.2332,0.2332,0.1732,0.1749,0.1835,0.1901,0.2002,0.2096,0.2226,0.2277,0.2389,0.2372,0.2407,0.2198,0.2338,0.2337,0.2336,0.2335,0.2335,0.2334,0.2334,0.1689,0.1701,0.1772,0.1881,0.2004,0.2131,0.2238,0.2358,0.2428,0.2478,0.2314,0.2449,0.2438,0.2521,0.2522,0.2522,0.2522,0.2523,0.2523,0.1605,0.1671,0.1731,0.1864,0.1942,0.2081,0.2275,0.2331,0.2443,0.2335,0.2511,0.2469,0.2463,0.2449,0.2528,0.2527,0.2526,0.2526,0.2525,0.1527,0.1583,0.1651,0.1727,0.1885,0.1961,0.2177,0.2221,0.2273,0.2238,0.2261,0.2273,0.2227,0.2228,0.2204,0.2213,0.2209,0.2206,0,0.1463,0.1498,0.1571,0.1641,0.1709,0.187,0.1853,0.1956,0.2056,0.1987,0.2283,0.2308,0.2313,0.2261,0.2256,0.2225,0,0,0,0.1413,0.1448,0.1461,0.1549,0.1607,0.1678,0.1836,0.1802,0.2039,0.1994,0.2119,0.2141,0.237,0.2543,0.2502,0.2494,0.247,0,0]},{"header":{"parameterUnit":"m.s-1","parameterCategory":2,"la1":30.2992,"la2":30.254,"lo1":-89.0895,"lo2":-89.0443,"dy":0.0025,"dx":0.0025,"nx":19,"ny":19,"refTime":"2026-04-05T09:00:00:Z","depth":"4","parameterNumber":3,"parameterNumberName":"V-component_of_CURRENTS"},"data":[0,0,0,0.0295,0.0295,0.028,0.028,0.0253,0.0252,0,0,0,0,0,0,0,0,0,0,0,0.0301,0.0301,0.0295,0.0295,0.028,0.028,0.0253,0.0252,0,0,0,0,0,0,0,0,0,0,0,0.0301,0.0301,0.0301,0.0295,0.028,0.028,0.0253,0.0265,0,0,0,0,0,0,0,0,0,0,0.0279,0.0288,0.0301,0.0301,0.0295,0.028,0.028,0.0265,0.0264,0.0258,0,0.0261,0,0.0258,0.0251,0.0251,0,0,0,0.0289,0.0289,0.0286,0.0301,0.0295,0.0281,0.0285,0.0264,0.0263,0.0257,0.0261,0.026,0.0258,0.0251,0.0251,0.0263,0.0263,0,0,0.029,0.0295,0.0287,0.0286,0.0297,0.0286,0.0285,0.0264,0.0264,0.0261,0.0259,0.0257,0.0251,0.025,0.0263,0.0263,0,0,0,0.0296,0.0296,0.0293,0.0287,0.0286,0.0286,0.0284,0.0265,0.0264,0.0259,0.0257,0.0251,0.025,0.0263,0.0263,0.0334,0,0,0,0.0296,0.03,0.0294,0.0296,0.0287,0.0276,0.0286,0.0266,0.0263,0.0257,0.0251,0.025,0.0262,0.0263,0.0331,0.0374,0,0,0,0.03,0.03,0.0301,0.0297,0.0293,0.0277,0.0275,0.0265,0.0263,0.0251,0.025,0.0262,0.0263,0.0329,0.0369,0.0391,0,0,0,0.0303,0.0321,0.0301,0.0323,0.0294,0.0315,0.0275,0.028,0.0275,0.025,0.0262,0.0263,0.0328,0.0366,0.0388,0.039,0,0,0,0.033,0.0324,0.0339,0.0322,0.0352,0.0316,0.0349,0.0318,0.0283,0.0267,0.0267,0.0332,0.0369,0.039,0.0432,0,0,0,0,0.0352,0.0366,0.037,0.0382,0.0382,0.0397,0.0367,0.0349,0.0332,0.0283,0.0327,0.0348,0.0359,0.0352,0.0266,0.0266,0.0266,0.0266,0.0266,0.0392,0.0398,0.0434,0.0448,0.0461,0.045,0.0454,0.0424,0.0381,0.0381,0.0402,0.0463,0.0458,0.0389,0.0389,0.039,0.039,0.039,0.039,0.0451,0.0478,0.0492,0.0531,0.0539,0.0568,0.0549,0.0518,0.0507,0.046,0.0466,0.0423,0.0397,0.0396,0.0395,0.0394,0.0394,0.0393,0.0393,0.0481,0.0499,0.0525,0.0592,0.0645,0.0654,0.07,0.0657,0.0585,0.0593,0.0561,0.0509,0.0507,0.0588,0.0588,0.0588,0.0589,0.0589,0.0589,0.0502,0.0533,0.0592,0.0662,0.0722,0.0786,0.0794,0.0779,0.0707,0.0651,0.0613,0.0529,0.0522,0.0517,0.0594,0.0593,0.0592,0.0592,0.0592,0.0542,0.0559,0.0655,0.0717,0.085,0.0898,0.0911,0.0852,0.0829,0.0771,0.0668,0.0663,0.0636,0.0627,0.0624,0.0735,0.0736,0.0736,0,0.0566,0.0581,0.071,0.0819,0.0924,0.0962,0.0957,0.0925,0.0816,0.0799,0.0812,0.0699,0.0693,0.0664,0.0656,0.0655,0,0,0,0.0597,0.0637,0.0727,0.0834,0.0955,0.0957,0.0955,0.0919,0.0837,0.0809,0.0744,0.0742,0.0694,0.0607,0.0553,0.0545,0.0534,0,0]}]]